SCP
1 1 1 1 1 1 1 1 1 1 1 1 1 1 1 0 0 1 1 0 0 0 0 0 0 0 0 0 0 0 0 0 0 0 0 0 0 0 0 0 0 0 0
1 1 1 1 1 1 1 1 1 1 1 1 1 1 1 0 1 1 1 1 0 0 0 0 0 0 0 0 0 0 0 0 0 0 0 0 0 0 0 0 0 0 0
1 1 0 1 1 1 1 1 1 1 1 1 1 1 1 1 1 1 1 1 0 0 0 0 0 0 0 0 0 0 0 0 0 0 0 0 0 0 0 0 0 0 0
1 1 1 1 1 1 1 1 1 1 1 1 1 1 1 1 1 1 1 1 0 0 0 0 0 0 0 0 0 0 0 0 0 0 0 0 0 0 0 0 0 0 0
1 1 1 1 1 1 1 1 1 1 1 1 1 1 1 1 1 1 1 1 0 0 0 1 1 0 0 0 0 0 0 0 0 0 0 0 0 1 0 0 0 0 0
1 1 1 1 1 1 1 1 1 1 1 1 1 1 1 1 1 1 1 1 1 0 0 1 1 1 1 1 1 0 0 0 0 0 0 0 1 1 1 0 0 0 0
1 1 1 1 1 1 1 1 1 1 1 1 1 1 1 1 1 1 1 1 1 1 1 1 1 1 1 1 1 1 0 0 0 0 0 0 1 2 1 1 0 0 0
2 1 1 1 1 1 1 1 1 1 2 2 2 2 2 2 2 2 1 1 1 1 1 1 1 1 1 1 1 1 1 1 0 0 0 1 1 2 2 1 1 0 0
2 2 1 1 1 1 2 2 2 2 2 2 2 2 2 2 2 2 2 2 2 2 2 2 1 1 1 1 1 1 1 1 1 0 0 1 2 2 2 2 1 1 1
2 2 2 2 2 2 2 2 2 2 2 2 2 2 2 2 2 2 3 2 2 2 2 2 2 2 2 2 2 2 1 1 1 1 1 1 3 3 3 2 2 1 1
2 2 2 2 2 2 2 2 2 2 2 2 2 2 3 3 3 3 3 3 3 3 3 3 3 3 3 2 2 2 2 1 1 1 1 2 4 4 3 3 2 1 1
2 2 2 3 3 3 3 3 2 3 3 3 3 3 3 3 3 3 3 3 3 3 3 4 4 3 3 3 3 2 2 2 1 1 2 3 4 4 3 2 2 1 1
2 2 2 3 3 3 3 3 3 3 4 3 3 3 3 3 3 3 3 4 4 3 3 4 4 4 3 3 3 2 2 2 2 2 3 4 4 4 3 2 2 1 1
2 2 3 4 4 4 4 4 3 4 4 4 3 4 4 3 3 3 3 4 4 4 3 4 4 4 4 3 3 3 3 3 3 3 4 5 5 4 4 3 2 2 2
3 3 4 5 5 5 5 4 4 4 4 4 4 4 4 4 4 4 4 5 4 4 4 3 3 4 4 4 3 3 3 3 3 4 5 6 6 5 4 3 3 2 2
4 4 5 7 7 6 6 5 5 4 4 5 5 5 5 5 5 5 5 5 4 4 4 3 3 3 4 4 4 4 4 4 4 4 5 6 6 5 4 4 3 3 3
6 7 7 8 8 8 7 6 5 4 4 5 6 6 6 6 5 6 6 5 5 4 4 3 3 3 3 3 3 3 4 4 4 4 5 5 5 5 4 4 3 3 3
8 9 9 10 10 9 8 7 6 5 6 7 7 7 7 6 6 6 6 6 5 5 4 3 4 4 4 3 3 3 3 4 4 4 4 5 5 5 5 4 4 4 4
10 11 13 13 12 11 10 8 7 7 8 8 7 7 6 6 6 7 6 6 5 5 4 4 4 5 4 3 3 3 3 3 4 4 4 5 5 5 5 4 4 4 4
13 14 15 15 14 14 13 10 8 7 7 7 6 6 6 6 6 6 6 5 4 4 4 4 4 4 4 3 3 2 3 3 3 3 4 5 5 5 4 4 4 5 4
14 15 15 15 14 15 15 12 8 7 6 6 6 6 6 6 6 6 5 4 4 4 4 4 4 3 3 3 2 2 3 3 3 3 4 4 4 4 4 4 5 5 5
14 14 14 13 13 14 14 12 8 7 6 6 6 7 8 8 6 5 4 4 4 3 3 3 3 2 2 2 2 2 2 2 2 2 3 4 4 4 4 4 5 5 5
12 12 12 12 13 12 12 10 8 6 6 6 7 7 8 8 6 5 4 4 4 3 3 3 2 2 2 2 2 2 2 2 2 2 2 3 3 3 3 4 4 4 4
11 11 11 13 13 11 10 9 8 7 7 7 7 7 7 7 6 5 4 4 4 4 3 3 2 2 2 1 2 2 2 2 2 2 2 2 3 3 4 3 3 3 3
10 10 11 13 12 11 11 10 9 8 7 7 7 6 6 6 5 4 4 5 5 4 4 3 2 2 2 1 1 1 2 2 2 2 2 2 2 3 4 4 3 3 2
9 8 9 11 12 12 12 11 10 8 7 7 6 6 6 6 5 4 4 5 5 5 4 3 2 2 2 1 1 1 1 1 2 1 1 1 2 2 3 4 3 3 2
Wind_Speed
18 19 19 16 14 14 14 14 14 13 12 12 11 11 10 10 10 10 10 10 10 10 10 9 9 9 9 9 9 10 10 9 9 10 10 10 9 8 8 7 4 10 12
22 19 19 17 15 14 14 14 13 13 12 12 11 10 10 10 9 9 9 9 9 9 9 9 8 8 8 8 8 7 7 6 6 6 7 8 8 7 7 7 8 9 11
21 19 18 16 15 14 13 13 13 13 12 11 11 10 9 9 9 8 8 8 8 8 8 8 7 7 7 7 6 5 4 3 2 3 5 5 8 7 7 8 10 10 9
20 17 16 17 15 14 13 13 12 12 12 11 10 9 9 8 8 8 7 7 7 7 7 6 6 6 6 5 5 4 2 1 3 4 6 5 7 10 7 6 7 7 7
19 17 18 18 16 15 14 13 12 12 11 10 10 9 8 8 7 7 6 6 5 5 5 5 5 5 5 4 3 3 2 3 6 8 7 4 6 12 10 7 6 5 5
19 18 18 18 16 14 13 12 12 11 10 10 9 8 7 7 6 6 6 5 5 5 5 5 5 5 5 5 4 4 4 5 7 8 7 3 8 12 12 9 7 6 5
19 18 18 17 16 14 13 12 11 11 10 9 9 8 7 6 6 6 6 6 5 5 5 5 6 6 6 6 6 6 6 7 8 8 6 3 9 14 13 11 8 7 7
19 18 16 17 16 14 13 12 11 10 10 9 9 8 7 7 7 7 7 7 7 7 7 7 7 7 8 8 8 8 9 10 9 10 8 5 13 16 15 13 10 8 8
20 18 15 14 14 14 13 12 11 10 10 9 9 9 8 8 9 9 9 9 9 9 9 9 9 9 9 10 10 11 11 12 9 7 10 4 15 17 16 14 11 10 9
18 17 15 14 13 12 12 13 13 12 11 10 10 10 10 11 11 13 12 13 13 12 11 11 11 11 11 11 12 13 13 12 10 10 8 5 15 16 15 14 13 11 11
14 15 15 15 13 12 13 14 14 13 12 11 11 13 11 9 11 12 17 17 16 15 14 13 13 13 12 13 15 15 13 8 11 9 7 9 15 16 15 14 13 13 12
11 13 12 14 13 12 10 11 10 10 11 10 9 10 9 8 8 9 9 17 18 18 16 15 14 13 11 9 13 17 8 11 11 8 5 11 15 16 15 14 14 14 13
9 10 10 11 9 9 6 9 6 6 7 11 11 9 7 6 6 6 4 8 11 13 10 11 12 9 9 8 7 7 10 10 6 6 5 13 15 16 16 15 14 14 15
11 11 10 11 7 3 2 4 4 4 5 6 8 9 6 4 3 3 2 2 4 5 7 7 5 9 9 9 9 7 9 7 5 3 5 13 15 15 15 15 15 15 16
11 10 8 8 8 5 2 1 2 2 2 2 2 4 4 3 3 3 2 2 3 3 3 4 4 5 5 6 6 7 6 7 6 5 4 12 15 16 16 16 16 17 17
13 11 10 9 8 6 3 2 2 3 1 2 1 2 2 2 2 2 2 2 3 4 4 3 4 4 4 4 5 6 5 5 5 5 4 8 15 16 16 17 17 18 18
13 11 9 9 8 7 5 4 4 4 3 2 1 2 2 2 2 2 3 3 3 4 4 4 5 4 5 5 5 6 5 5 5 5 5 4 7 14 17 17 17 18 19
9 9 9 9 9 8 6 3 3 3 2 1 1 1 0 0 1 2 3 3 3 3 3 4 4 4 4 5 5 5 5 5 6 6 6 6 5 6 11 17 18 19 19
7 8 7 5 7 7 6 4 4 3 2 2 1 0 2 1 2 2 2 3 3 3 3 5 4 3 4 5 5 6 6 6 6 8 8 8 7 6 6 10 18 19 20
8 8 7 5 5 6 5 4 3 3 2 2 1 2 2 1 2 2 3 3 3 3 3 3 4 4 4 4 7 7 5 5 6 7 9 9 8 9 9 9 8 12 19
7 7 7 6 4 3 3 2 2 2 2 1 1 3 1 1 1 2 3 2 3 3 3 4 4 5 4 4 4 5 6 8 9 8 8 8 9 9 8 8 7 6 7
6 5 5 5 5 3 2 2 1 1 2 2 1 2 2 1 1 3 2 3 3 3 5 4 3 3 4 3 3 3 4 4 6 8 6 7 9 7 8 10 7 7 6
7 6 4 4 5 3 2 2 2 1 2 2 1 2 2 1 2 2 2 2 3 4 3 4 4 5 4 4 4 4 3 3 3 3 5 6 6 5 6 5 6 6 7
5 5 4 4 3 1 1 2 2 2 3 2 2 2 2 2 3 3 3 3 2 3 4 5 3 4 4 5 4 4 5 4 4 4 3 5 6 6 6 6 5 5 6
6 5 5 4 3 2 2 3 3 4 3 3 2 2 2 3 4 4 4 3 2 3 4 3 4 4 4 5 5 4 5 5 6 6 6 4 4 4 4 5 4 4 5
9 8 7 5 4 3 3 4 4 5 6 6 6 5 3 3 4 5 4 3 3 3 3 3 4 5 5 5 4 5 5 5 5 5 7 6 5 4 4 4 4 4 4
Wind_Direction
122 131 133 131 129 129 132 134 135 133 131 127 123 119 115 111 108 104 101 99 99 100 101 99 94 89 87 84 80 77 78 80 86 92 96 96 93 90 87 79 104 105 106
124 132 133 132 132 132 134 135 135 135 133 131 128 126 122 118 115 111 108 106 104 103 101 100 99 95 94 92 91 89 89 93 101 111 120 118 109 98 82 54 60 107 112
123 132 135 134 135 135 136 138 138 139 138 136 135 133 130 126 122 118 115 112 111 110 108 106 105 103 101 101 100 101 102 110 136 163 189 164 129 119 101 83 89 106 112
127 138 137 138 139 139 140 141 143 144 143 142 141 139 137 134 131 127 123 121 120 120 120 119 116 113 111 112 114 119 134 217 254 252 236 212 152 133 125 110 107 114 121
132 136 136 145 144 145 145 147 149 150 149 149 149 148 147 145 142 138 136 135 135 136 137 138 137 136 135 137 143 159 197 251 274 271 265 203 136 145 143 140 139 141 145
135 135 142 148 148 150 151 152 154 155 156 157 158 159 159 159 159 158 158 159 160 162 164 165 165 165 167 173 183 201 226 251 273 266 264 194 141 156 153 158 169 178 179
137 134 145 151 152 154 157 159 162 163 165 167 169 172 177 181 185 189 188 188 190 193 194 194 195 194 195 198 205 214 228 245 258 273 279 227 151 159 162 168 182 198 202
134 135 143 152 156 160 163 167 170 173 176 179 183 188 195 204 211 216 217 215 213 215 217 217 216 215 214 214 217 222 229 245 248 255 257 222 160 165 169 173 184 205 215
132 134 147 155 161 166 171 175 179 183 187 192 198 204 211 219 225 228 229 229 226 226 228 230 230 229 228 225 225 227 231 237 258 270 271 242 166 170 173 176 186 204 219
133 140 152 157 163 171 177 183 187 191 197 203 210 217 222 228 232 233 231 227 227 227 229 233 236 237 235 233 231 231 232 237 244 251 254 223 173 175 178 182 192 205 218
139 145 156 158 167 178 182 181 187 196 203 208 215 222 227 234 233 226 226 223 220 222 225 230 235 239 239 237 235 233 232 234 241 239 238 205 181 181 184 189 197 207 217
151 155 161 157 170 185 189 164 186 194 196 206 214 209 212 226 244 249 219 213 215 218 223 227 232 237 238 242 233 225 225 229 243 245 228 186 183 186 189 194 203 211 219
162 166 165 154 172 184 175 162 191 196 184 197 215 212 210 221 234 241 217 198 208 215 221 225 225 227 229 231 241 210 214 230 225 231 207 182 187 191 194 199 207 215 221
175 178 170 154 161 190 189 177 185 200 184 196 197 204 211 208 236 261 266 234 203 209 210 226 218 217 224 232 232 225 218 224 235 226 189 182 189 196 200 204 211 217 222
177 180 163 152 154 170 196 269 225 233 227 207 182 191 203 213 228 248 271 285 280 269 242 228 241 240 234 242 249 244 238 236 239 235 196 192 195 201 206 210 214 220 223
177 180 164 161 154 159 176 204 279 277 249 272 261 225 204 222 251 283 284 278 278 285 290 286 283 276 266 253 256 263 265 262 250 242 226 202 205 208 212 215 217 221 224
173 168 155 161 157 161 186 206 226 242 243 223 228 235 226 244 265 271 276 275 272 280 288 282 282 280 272 267 256 254 255 254 262 263 252 231 215 215 218 221 223 223 224
162 149 156 169 162 161 172 190 236 247 272 273 237 232 169 316 305 297 277 273 280 279 273 270 262 265 268 270 267 261 258 254 252 254 256 250 239 234 222 223 227 226 226
138 131 142 147 150 157 167 183 219 228 236 259 246 113 61 17 306 282 279 281 287 280 275 277 277 263 264 263 264 255 244 243 244 249 249 250 243 238 234 226 224 226 228
132 131 133 136 140 151 163 186 216 224 223 224 199 96 63 359 351 350 293 297 302 282 276 278 289 283 267 263 271 271 259 248 239 241 243 245 240 237 233 235 222 224 227
114 132 139 147 149 153 155 194 200 196 229 223 163 117 112 323 10 312 298 322 297 294 302 290 286 288 282 267 267 273 262 246 237 235 236 239 239 238 239 237 227 222 220
113 119 130 145 154 174 162 179 201 222 251 229 155 147 164 119 345 291 2 316 320 316 290 290 299 289 285 282 270 280 278 261 243 240 232 235 240 240 238 237 234 230 224
129 136 151 148 147 172 175 220 227 206 257 257 184 180 150 180 244 274 291 290 309 297 303 320 290 291 296 293 259 254 270 275 307 266 249 246 246 241 242 240 240 239 232
98 123 119 122 118 138 232 266 270 255 260 267 238 221 181 220 233 235 241 255 272 288 293 291 336 324 300 293 286 262 258 273 282 287 269 253 247 244 239 247 250 238 230
51 60 71 78 75 38 346 312 305 295 295 300 295 275 244 239 227 228 223 227 249 270 287 306 306 295 292 288 293 298 292 280 257 261 278 276 263 249 239 238 241 245 232
37 34 36 49 47 19 352 329 318 310 310 310 306 297 272 258 235 225 223 209 235 258 278 281 279 280 275 281 283 282 281 278 275 266 269 274 271 264 248 237 237 240 229